Location: Lynch Observatory
(39.9540°N, 75.1861°W)
Time: 00:24:51
(UTC-04:00)

UWE-3 - Pass Details

Date: 27 April 2024
Orbit: 569 x 652 km, 97.8° (Epoch: 27 May)

Event Time Altitude Azimuth Distance (km) Brightness Sun altitude
Rises 04:43:12 0° 354° (N) 2,880 ? -14.9°
Reaches altitude 10° 04:46:01 10° 334° (NNW) 1,987 ? -14.5°
Maximum altitude 04:48:46 17° 294° (WNW) 1,598 ? -14.0°
Enters shadow 04:49:54 15° 275° (W) 1,677 ? -13.9°
